Dumas, TX

3:55 PM CDT on June 22, 2017 (GMT -0500)
Moore County

Weather History for KDUX - July, 2013

Change the Weather History Date:

Thursday, July 25, 2013

  Actual Average (KDHT) Record (KDHT)
Temperature  
Mean Temperature 74 °F -  
Max Temperature 84 °F 90 °F 105 °F (2014)
Min Temperature 65 °F 62 °F 54 °F (2004)
Cooling Degree Days 10    
Growing Degree Days 24 (Base 50)    
Moisture  
Dew Point 62 °F    
Average Humidity 67    
Maximum Humidity 83    
Minimum Humidity 50    
Precipitation  
Precipitation 0.00 in - - ()
Sea Level Pressure  
Sea Level Pressure 30.14 in    
Wind  
Wind Speed 14 mph (South)    
Max Wind Speed 23 mph    
Max Gust Speed 29 mph    
Visibility 10 miles    
Events Rain    
Averages and records for this station are not official NWS values.
T = Trace of Precipitation, MM = Missing Value Source: NWS Daily Summary

Daily Weather History Graph

Daily Weather History Graph

Search for Another Location

Airport or City:

Trip Planner

Search our weather history database for the weather conditions in past years. The results will help you decide how hot, cold, wet, or windy it might be!

Date:

Astronomy

Jul. 25, 2013 Rise Set
Actual Time 6:50 AM CDT 8:58 PM CDT
Civil Twilight 6:21 AM CDT 9:26 PM CDT
Nautical Twilight 5:46 AM CDT 10:01 PM CDT
Astronomical Twilight 5:08 AM CDT 10:39 PM CDT
Moon 10:50 PM CDT (7/25) 10:13 AM CDT (7/25)
Length of Visible Light 15h 04m
Length of Day
14h 07m
Waning Gibbous, 88% of the Moon is Illuminated
Jul 25
Waning Gibbous
Jul 29
Last Quarter
Aug 6
New
Aug 14
First Quarter
Aug 20
Full

Hourly Weather History & Observations

Time (CDT) Temp. Heat Index Dew Point Humidity Pressure Visibility Wind Dir Wind Speed Gust Speed Precip Events Conditions
12:15 AM 69.4 °F - 59.5 °F 71% 30.21 in 10.0 mi SW 11.5 mph - N/A   Clear
12:35 AM 68.9 °F - 58.5 °F 69% 30.22 in 10.0 mi SW 12.7 mph - N/A   Clear
12:55 AM 68.2 °F - 59.4 °F 73% 30.23 in 10.0 mi SW 19.6 mph - N/A   Clear
1:15 AM 68.0 °F - 59.5 °F 74% 30.22 in 10.0 mi SW 20.7 mph - N/A   Scattered Clouds
1:35 AM 67.5 °F - 59.7 °F 76% 30.21 in 10.0 mi SW 18.4 mph - N/A   Scattered Clouds
1:55 AM 67.6 °F - 59.0 °F 74% 30.19 in 10.0 mi SSW 20.7 mph - N/A Rain Light Rain
2:15 AM 65.7 °F - 60.4 °F 83% 30.17 in 10.0 mi South 8.1 mph - N/A Rain Light Rain
2:35 AM 66.9 °F - 59.9 °F 78% 30.19 in 10.0 mi WSW 19.6 mph 24.2 mph N/A   Scattered Clouds
2:55 AM 69.6 °F - 56.1 °F 62% 30.18 in 10.0 mi South 11.5 mph 21.9 mph N/A   Light Drizzle
3:15 AM 67.8 °F - 58.8 °F 73% 30.19 in 10.0 mi SSE 5.8 mph - N/A   Scattered Clouds
3:35 AM 68.4 °F - 57.7 °F 69% 30.20 in 10.0 mi South 3.5 mph - N/A   Clear
3:55 AM 68.0 °F - 58.1 °F 71% 30.19 in 10.0 mi ESE 4.6 mph - N/A Rain Light Rain
4:15 AM 67.3 °F - 58.8 °F 74% 30.16 in 10.0 mi ESE 12.7 mph - N/A Rain Light Rain
4:35 AM 68.2 °F - 57.2 °F 68% 30.16 in 10.0 mi ESE 9.2 mph - N/A   Scattered Clouds
4:55 AM 67.5 °F - 57.6 °F 70% 30.15 in 10.0 mi East 6.9 mph - N/A   Clear
5:15 AM 67.1 °F - 58.1 °F 73% 30.15 in 10.0 mi East 8.1 mph - N/A   Clear
5:35 AM 66.2 °F - 58.8 °F 77% 30.14 in 10.0 mi Calm Calm - N/A   Clear
5:55 AM 66.6 °F - 58.5 °F 75% 30.15 in 10.0 mi Calm Calm - N/A   Clear
6:15 AM 65.7 °F - 59.2 °F 80% 30.16 in 10.0 mi Calm Calm - N/A   Clear
6:35 AM 65.8 °F - 60.1 °F 82% 30.16 in 10.0 mi South 5.8 mph - N/A   Scattered Clouds
6:55 AM 65.3 °F - 59.9 °F 83% 30.18 in 10.0 mi SSW 5.8 mph - N/A   Clear
7:15 AM 66.2 °F - 58.8 °F 77% 30.18 in 10.0 mi SSW 9.2 mph - N/A   Clear
7:35 AM 66.4 °F - 59.0 °F 77% 30.16 in 10.0 mi SSW 8.1 mph - N/A   Clear
7:55 AM 65.8 °F - 59.5 °F 80% 30.16 in 10.0 mi South 9.2 mph - N/A   Clear
8:15 AM 66.6 °F - 59.9 °F 79% 30.15 in 10.0 mi SSW 10.4 mph - N/A   Clear
8:35 AM 68.0 °F - 59.9 °F 75% 30.17 in 10.0 mi SSW 12.7 mph - N/A   Clear
8:55 AM 70.2 °F - 59.7 °F 69% 30.16 in 10.0 mi South 10.4 mph - N/A   Clear
9:15 AM 71.6 °F - 59.4 °F 65% 30.17 in 10.0 mi South 13.8 mph - N/A   Clear
9:35 AM 72.9 °F - 59.7 °F 63% 30.17 in 10.0 mi South 16.1 mph - N/A   Clear
9:55 AM 71.8 °F - 60.4 °F 67% 30.17 in 10.0 mi SSW 16.1 mph - N/A   Clear
10:15 AM 71.6 °F - 60.4 °F 68% 30.16 in 10.0 mi South 13.8 mph - N/A   Clear
10:35 AM 72.5 °F - 61.0 °F 67% 30.16 in 10.0 mi South 15.0 mph - N/A   Clear
10:55 AM 73.0 °F - 61.3 °F 67% 30.16 in 10.0 mi South 18.4 mph - N/A   Clear
11:15 AM 74.5 °F - 62.1 °F 65% 30.16 in 10.0 mi SSE 19.6 mph - N/A   Clear
11:35 AM 77.0 °F - 62.8 °F 61% 30.16 in 10.0 mi SSE 18.4 mph 25.3 mph N/A   Clear
11:55 AM 77.7 °F - 63.0 °F 60% 30.17 in 10.0 mi South 21.9 mph 25.3 mph N/A   Scattered Clouds
12:15 PM 78.4 °F - 64.0 °F 61% 30.17 in 10.0 mi South 20.7 mph 25.3 mph N/A   Clear
12:35 PM 78.3 °F - 64.0 °F 61% 30.16 in 10.0 mi South 20.7 mph 28.8 mph N/A   Scattered Clouds
12:55 PM 79.2 °F - 64.0 °F 60% 30.16 in 10.0 mi South 20.7 mph 27.6 mph N/A   Scattered Clouds
1:15 PM 78.6 °F - 64.0 °F 61% 30.16 in 10.0 mi South 21.9 mph 27.6 mph N/A   Clear
1:35 PM 78.1 °F - 64.2 °F 62% 30.16 in 10.0 mi South 20.7 mph 26.5 mph N/A   Scattered Clouds
1:55 PM 77.7 °F - 64.6 °F 64% 30.15 in 10.0 mi South 20.7 mph 26.5 mph N/A   Scattered Clouds
2:15 PM 77.9 °F - 64.6 °F 63% 30.15 in 10.0 mi South 21.9 mph 26.5 mph N/A   Scattered Clouds
2:35 PM 78.4 °F - 64.8 °F 63% 30.14 in 10.0 mi South 18.4 mph 25.3 mph N/A   Scattered Clouds
2:55 PM 81.7 °F 83.5 °F 65.1 °F 57% 30.13 in 10.0 mi South 20.7 mph 26.5 mph N/A   Scattered Clouds
3:15 PM 81.7 °F 83.3 °F 64.8 °F 56% 30.13 in 10.0 mi South 21.9 mph 28.8 mph N/A   Scattered Clouds
3:35 PM 82.2 °F 83.8 °F 64.4 °F 55% 30.12 in 10.0 mi South 18.4 mph 27.6 mph N/A   Scattered Clouds
3:55 PM 82.0 °F 83.4 °F 63.7 °F 54% 30.11 in 10.0 mi South 20.7 mph 25.3 mph N/A   Scattered Clouds
4:15 PM 82.8 °F 84.2 °F 63.9 °F 53% 30.10 in 10.0 mi South 21.9 mph 28.8 mph N/A   Scattered Clouds
4:35 PM 84.0 °F 85.2 °F 63.7 °F 50% 30.07 in 10.0 mi South 23.0 mph 27.6 mph N/A   Scattered Clouds
4:55 PM 83.8 °F 85.1 °F 64.2 °F 51% 30.07 in 10.0 mi South 18.4 mph 28.8 mph N/A   Scattered Clouds
5:15 PM 83.1 °F 84.6 °F 64.6 °F 53% 30.06 in 10.0 mi South 19.6 mph 26.5 mph N/A   Scattered Clouds
5:35 PM 82.6 °F 83.9 °F 63.7 °F 53% 30.05 in 10.0 mi South 19.6 mph 25.3 mph N/A   Scattered Clouds
5:55 PM 81.7 °F 83.2 °F 64.2 °F 55% 30.06 in 10.0 mi South 19.6 mph 26.5 mph N/A   Scattered Clouds
6:15 PM 81.9 °F 83.5 °F 64.6 °F 56% 30.06 in 10.0 mi South 20.7 mph - N/A   Clear
6:35 PM 81.5 °F 82.9 °F 63.7 °F 55% 30.06 in 10.0 mi South 21.9 mph - N/A   Clear
6:55 PM 81.1 °F 82.5 °F 63.7 °F 55% 30.07 in 10.0 mi South 16.1 mph 23.0 mph N/A   Clear
7:15 PM 81.5 °F 83.1 °F 64.6 °F 56% 30.07 in 10.0 mi South 19.6 mph 23.0 mph N/A   Clear
7:35 PM 80.6 °F 82.5 °F 65.7 °F 60% 30.07 in 10.0 mi South 17.3 mph 20.7 mph N/A   Clear
7:55 PM 79.7 °F - 65.3 °F 61% 30.08 in 10.0 mi South 18.4 mph - N/A   Clear
8:15 PM 79.3 °F - 65.7 °F 63% 30.08 in 10.0 mi South 15.0 mph - N/A   Clear
8:35 PM 78.8 °F - 66.0 °F 65% 30.10 in 10.0 mi South 12.7 mph - N/A   Scattered Clouds
8:55 PM 78.8 °F - 66.0 °F 65% 30.10 in 10.0 mi South 15.0 mph - N/A   Scattered Clouds
9:15 PM 77.9 °F - 65.8 °F 66% 30.09 in 10.0 mi South 16.1 mph - N/A   Clear
9:35 PM 77.7 °F - 65.8 °F 67% 30.10 in 10.0 mi South 13.8 mph - N/A   Clear
9:55 PM 77.4 °F - 65.3 °F 66% 30.11 in 10.0 mi South 16.1 mph 20.7 mph N/A   Clear
10:15 PM 77.2 °F - 65.7 °F 67% 30.11 in 10.0 mi South 19.6 mph - N/A   Clear
10:35 PM 76.6 °F - 66.4 °F 70% 30.11 in 10.0 mi SSW 16.1 mph - N/A   Clear
10:55 PM 76.1 °F - 67.3 °F 74% 30.13 in 10.0 mi SW 13.8 mph - N/A   Scattered Clouds
11:15 PM 75.4 °F - 67.6 °F 77% 30.12 in 10.0 mi SSW 10.4 mph - N/A   Scattered Clouds
11:35 PM 75.4 °F - 67.6 °F 77% 30.13 in 10.0 mi SW 10.4 mph - N/A   Scattered Clouds
11:55 PM 75.2 °F - 67.6 °F 77% 30.14 in 10.0 mi WSW 9.2 mph - N/A   Scattered Clouds